YAOGAN-33 03

Satellite information

Favourite Embed

Satellite Type and Status

PAYLOADIN ORBIT

Key statistics

Satellite YAOGAN-33 03 at a glance.

Uptime

779

Days in orbit

Revolutions

≈ 14.6

Per day

Orbit

SSO

Sun Synchronous Orbit

Inclination

98.2

Latest

Satellite identification and parameters

Extended collection of information and parameters for YAOGAN-33 03.

Object identification

Identified? True

Debris? False

Object name: YAOGAN-33 03

International designator: 2023-136A

Object number (NORAD): 57797

Object ID (CCSDS): 57797

Country: PEOPLES REPUBLIC OF CHINA (PRC)

Current information (Y/N): Y

RCS size: LARGE

Orbital parameters

Period: 98.725 minutes

Inclination: 98.1848 deg

SMA: 7075.827 km

Apoapsis: 703.427 km

Periapsis: 691.957 km

RAAN: 219.5697 deg

Eccentricy: 0.00081055

Argument of periapsis: 190.4587 deg

Mean anomaly: 169.6445 deg

Mean motion: 14.58602476 rev/day

Mean motion (dot): 0.00000957 rev/day2

B* drag term: 0.0002153407 1/REarth

Two-line elements (TLE)

Creation date: Oct. 24, 2025, 2:48 a.m.

Reference frame: TEME

Reference center: EARTH

Epoch: Oct. 23, 2025, 10:49 p.m. UTC

TLE line 0: 0 YAOGAN-33 03

TLE line 1: 1 57797U 23136A 25296.95125998 .00000957 00000-0 21534-3 0 9991

TLE line 2: 2 57797 98.1848 219.5697 0008106 190.4587 169.6445 14.58602476113499

Live tracking on map

Real-time ground track for satellite YAOGAN-33 03.

In-orbit conjunctions

There are no conjunctions computed for YAOGAN-33 03, at the moment. Check back to stay up to date, as we update our databases every day.

Go to all conjunctions

Associated space launch

The Yaogan 33-03 is a Chinese military “remote sensing” satellite of unknown purpose.

YAOGAN-33 03 was lifted into orbit during the mission ‘Long March 4C | Yaogan 33-03’, on board a Long March 4C space rocket.

The launch took place on Sept. 6, 2023, 6:14 p.m. from Launch Area 4 (SLS-2 / 603).

For more information about the launch, click the button.

Launch to space Long March 4C | Yaogan 33-03
Long March 4C | Yaogan 33-03

Agency: N/A

Status: Launch Successful

Launch date: Sept. 6, 2023, 6:14 p.m. UTC

Rocket: Long March 4C

Launch pad: Launch Area 4 (SLS-2 / 603)

Location: Jiuquan Satellite Launch Center, People's Republic of China

...

Latest news about this satellite

There are no fresh news available about this satellite. Check back as we update our databases every day.


Newsletter sign-up

Weekly statistics, charts and insights to help you stay on top of the space industry.